CZ-3C DEB, 39352

Orbit data source: Space-Track

CZ-3C DEB, 39352 is space debris in HEO originally from a launch on Sun, 31 Oct 2010 UTC launched from the Xichang Space Center, China (XSC). Debris objects in space refer to the collection of defunct objects orbiting the Earth. Examples of debris include non-operational satellites, rocket bodies, and fragments generated from explosions, collisions, or faulty payload assembly.

Loading next visibility...
Identifier
39352, 2010-057S
Orbit
HEO
Country
Flag of CNCN / PRC
Related business
Manufacturer
CALT
Mission
Spacecraft
Bus & Motor
Unknown
Mass
Unknown
Launch date (UTC)
2010-10-31 (15 years ago)
Launch vehicle
Unknown
Launch site
Xichang Space Center, China (XSC)
Object type
Payload
Rocket body
Debris
Shape & HBR
Unknown shape, 0.2 m
Radar Cross Section
Medium (>0.1 m² and <1 m²)

Expand to show TLE details & history
Last TLE update: 6 months ago

TLE from 6 months ago
0 CZ-3C DEB
1 39352U 10057S   25277.16999493 -.00000360  00000-0 -68511-2 0  9992
2 39352  20.4910 244.4583 7216386 237.9885 280.4415  2.18272380 95433
Epoch: 2025-10-04T04:04Z
TLE epoch observation values (Epoch: 2025-10-04T04:04:47.561Z)
Latitude
20.43844°
Longitude
-104.15681°
Altitude
26,838.004 km
Speed
2.85 km/s
True Right ascension
22h 00m 35s
True Declination
20° 24' 52"
Sunlit
Object was in daylight at epoch
Visualization orbit readout
Latitude
Unknown
Longitude
Unknown
Altitude
Unknown
Speed
Unknown
Apparent Right ascension
Unknown
Apparent Declination
Unknown
Sunlit
N/A
Visualization observer readout
Local Sidereal Time
06:04:21
Azimuth
Unknown
Elevation
Unknown
Doppler factor
Unknown
Orbital elements
Apogee altitude
36,848.646 km
Perigee altitude
610.942 km
Semi-major axis
25,107.931 km
Eccentricity
0.72164
Inclination
20.491°
RAAN
244.4583°
Arg. of periapsis
237.9885°
True anomaly
207.92167°
Mean anomaly
280.4415°
Eccentric anomaly
243.45371°
Mean motion
0.54554 °/min
Orbital period
659.9 mins
BSTAR
-0.0068511
Loading maneuver chart data...
Computing Atmospheric mass density...
Loading historical data...
Loading historical data...
Loading historical data...
Loading historical data...
Loading historical data...
Loading historical data...
Loading historical data...

Documentation

Showing up to 5 results
|